Regional Weather Roundup
Issued by NWS Upton, NY

Current Version | Previous Version | Text Only | Print | Product List | Glossary On
Versions: 1 2 3 4 5 6 7 8 9 10 11 12 13 14 15 16 17 18 19 20 21 22 23 24 25 26 27 28 29 30 31 32 33 34 35 36 37 38 39 40 41 42 43 44 45 46 47 48 49 50
000 ASUS41 KOKX 220205 RWROKX REGIONAL WEATHER ROUNDUP NATIONAL WEATHER SERVICE NEW YORK NY 1000 PM EDT SUN SEP 21 2014 NOTE: "FAIR" INDICATES FEW OR NO CLOUDS BELOW 12,000 FEET WITH NO SIGNIFICANT WEATHER AND/OR OBSTRUCTIONS TO VISIBILITY. NYZ071-072-176-178-NJZ106-104-220300- NEW YORK CITY METRO AREA CITY SKY/WX TMP DP RH WIND PRES REMARKS CENTRAL PARK CLEAR 71 65 81 SW5 29.65R LAGUARDIA APRT PTCLDY 72 66 81 SW8 29.62R KENNEDY INTL PTCLDY 70 67 90 SW8 29.64R NEWARK/LIBERTY MOCLDY 72 68 87 SW10 29.63R BRNX BOT. GARD N/A 72 64 78 S9 29.63F TETERBORO PTCLDY 69 64 84 SW5 29.62R $$ NYZ177-179-078>081-220300- LONG ISLAND NEW YORK CITY SKY/WX TMP DP RH WIND PRES REMARKS FARMINGDALE PTCLDY 70 67 90 W6 29.63R ISLIP FOG 68 67 96 SW3 29.61R VSB 1/2 SHIRLEY FOG 68 67 96 SW3 29.62R VSB 1/4 WESTHAMPTON PTCLDY 67 67 100 CALM 29.63R FOG MONTAUK POINT N/A 69 67 93 CALM 29.61F $$ NYZ052-065-067-220300- HUDSON VALLEY CITY SKY/WX TMP DP RH WIND PRES REMARKS WHITE PLAINS PTCLDY 68 66 93 VRB5 29.63R FOG NEWBURGH NOT AVBL MONTGOMERY CLEAR 64 62 93 SW5 29.61F POUGHKEEPSIE PTCLDY 66 64 93 CALM 29.60S FOG ALBANY CLOUDY 69 52 54 W15 29.62R $$ NJZ001-105-106-008-010-013-015-019>022-104-220300- NEW JERSEY CITY SKY/WX TMP DP RH WIND PRES REMARKS NEWARK/LIBERTY MOCLDY 72 68 87 SW10 29.63R TETERBORO PTCLDY 69 64 84 SW5 29.62R CALDWELL PTCLDY 68 64 87 SW3 29.64R MORRISTOWN PTCLDY 64 64 100 CALM 29.65R SOMERVILLE PTCLDY 65 63 93 CALM 29.63R LINDEN MOCLDY 75 71 87 CALM 29.65S SUSSEX PTCLDY 65 62 90 CALM 29.63S ANDOVER N/A 64 62 93 CALM 29.64S TRENTON PTCLDY 70 65 84 S3 29.65R MILLVILLE PTCLDY 70 65 84 CALM 29.67S ATLANTIC CITY CLEAR 69 67 93 SW5 29.67S WRIGHTSTOWN PTCLDY 68 68 99 SW6 29.64R TOMS RIVER CLEAR 66 66 100 SW3 29.66S BELMAR CLEAR 68 64 88 SW6 29.65S $$ PAZ047>061-062-071-220300- EASTERN PENNSYLVANIA CITY SKY/WX TMP DP RH WIND PRES REMARKS PHILADELPHIA PTCLDY 72 65 78 S8 29.66R ALLENTOWN MOCLDY 69 61 75 W7 29.65R SCRANTON CLOUDY 64 60 87 N3 29.68R $$ CTZ002-004>006-009-010-012-RIZ004-006-007-MAZ004-011-015-220300- SOUTHERN NEW ENGLAND IN CT CITY SKY/WX TMP DP RH WIND PRES REMARKS BRADLEY INTL FOG 69 67 93 SW3 29.59F VSB 3/4 HARTFORD FOG 67 67 100 CALM 29.59S VSB 1/4 DANBURY FOG 63 62 97 W3 29.64R VSB 3/4 WTRBRY/OXFORD MOCLDY 66 63 88 CALM 29.64S BRIDGEPORT PTCLDY 70 68 93 CALM 29.61R FOG MERIDEN FOG 65 64 97 CALM 29.60S VSB 1/4 NEW HAVEN FOG 70 68 93 CALM 29.61R VSB 1/4 CHESTER FOG 68 68 100 CALM 29.62S VSB<1/4 GROTON MOCLDY 65 65 100 CALM 29.60F WILLIMANTIC CLOUDY 67 66 97 MISG 29.61S FOG IN RI CITY SKY/WX TMP DP RH WIND PRES REMARKS PROVIDENCE CLOUDY 68 68 100 W3 29.60F FOG BLOCK ISLAND CLOUDY 66 64 94 CALM 29.61R VSB 1/2 WESTERLY MOCLDY 67 65 93 CALM 29.60S IN MA CITY SKY/WX TMP DP RH WIND PRES REMARKS BOSTON CLOUDY 70 68 93 CALM 29.58F WORCESTER MOCLDY 66 66 100 SW3 29.62F FOG WESTFIELD CLOUDY 68 67 96 CALM 29.59F FOG PROVINCETOWN CLOUDY 66 64 94 CALM 29.58F NANTUCKET CLOUDY 66 65 96 N6 29.55F $$ ANZ330-335-338-340-345-350-353-355-220300- COASTAL MARINE OBSERVATIONS STATION/POSITION TIME SKY/WX TEMP WIND PRES VSBY WAVE AIR SEA DIR/SP/G HT/PER (UTC) (F) (DEG/KT/KT) (MB) (MI) (FT/S) NY HARB ENTRANCE 0200 70 71 230/ 10/ 12 1004.0 3/ 8 4S FIRE IS 0200 70 N/A 4/ 7 20S FIRE ISLAND 0200 69 69 230/ 6/ 6 1003.9 4/ 7 23SW MTP 0200 N/A 4/ 6 HUDSON CANYON 0200 70 70 290/ 8/ 10 1003.3 4/ 7 EXECUTION ROCKS 0200 71 70 200/ 6/ 8 N/A WESTERN LI SOUND 0200 71 220/ 6/ 6 N/A 0 CENTRAL LI SOUND 0100 69 71 240/ 4/ 4 N/A 1 EASTERN LI SOUND 0100 68 68 40/ 2/ 4 N/A ROBBINS REEF 0200 71 240/ 8/ 11 1002.1 $$ >>>>>>>>>>>>>>>>>>>>>>>>>>>> KEY <<<<<<<<<<<<<<<<<<<<<<<<<<< > < > SKY/WX - SKY CONDITION/PRESENT WEATHER < > TMP - TEMPERATURE IN FAHRENHEIT < > DP - DEWPOINT IN FAHRENHEIT < > RH - RELATIVE HUMIDITY IN PERCENT < > WIND - DIRECTION AND SPEED IN MPH < > PRES - MEAN SEA LEVEL PRESSURE IN INCHES OF HG < > WCI - WIND CHILL INDEX < > VSB - VISIBILITY IN MILES < > HX - HEAT INDEX < > TC - TEMPERATURE IN CELSIUS < > VRB - VARIABLE WIND DIRECTION < > < >>>>>>>>>>>>>>>>>>>>>>>>>>>> KEY <<<<<<<<<<<<<<<<<<<<<<<<<<<

USA.gov is the U.S. government's official web portal to all federal, state and local government web resources and services.